Volver al catálogo

STARLINK-5864

ActivoComunicacionesVLEO
NORAD 55940·PAYLOAD·🇺🇸 United States

Lanzado Mar 17, 2023 desde Vandenberg Space Force Base

Loading…

Próximos Pases (próximas 24 horas)

TLE

ActualizadoSource: CelesTrak SupGP

Época: Sep 15, 2026, 02:59 UTC

1 55940C 23037AC  26258.12479167  .00420760  00000+0  33216-1 0  2580
2 55940  70.0003 166.8049 0003174 269.5431 182.6316 15.00415749    18

Sigue STARLINK-5864 en tiempo real con AllMySat

Download on the App Store